Hourly Data Report for September 09, 2020

BRIER ISLAND
NOVA SCOTIA
Current Station Operator: ECCC - MSC

44°17'09.000" N
66°20'48.000" W
15.80 m
8200604
71988
WVU

Download Data

Hourly Data (September 2020)
Hourly Data Report for September 9, 2020
TIME Temp Definition
°C
Dew Point Definition
°C
Rel Hum Definition
%
Wind Dir Definition
10's deg

Wind Spd Definition
km/h
Visibility Definition
km
Stn Press Definition
kPa
Hmdx Definition


Wind Chill Definition


Weather Definition


00:00 13.3 13.3 100 16 12   102.26     LegendNANA
01:00 13.3 13.3 100 16 17   102.27     LegendNANA
02:00 13.4 13.4 100 16 14   102.32     LegendNANA
03:00 13.3 13.4 100 15 14   102.34     LegendNANA
04:00 13.9 13.9 100 15 13   102.37     LegendNANA
05:00 13.8 13.8 100 14 13   102.35     LegendNANA
06:00 13.9 13.9 100 13 12   102.36     LegendNANA
07:00 14.7 14.7 100 14 10   102.44     LegendNANA
08:00 13.8 13.8 100 32 6   102.52     LegendNANA
09:00 14.4 14.4 100 2 3   102.55     LegendNANA
10:00 18.5 18.5 100 14 14   102.56     LegendNANA
11:00 20.1 19.3 95 15 6   102.57 27   LegendNANA
12:00 21.3 18.2 82 15 11   102.54 27   LegendNANA
13:00 22.8 17.8 74 26 2   102.55 29   LegendNANA
14:00 20.5 15.9 75 23 9   102.54 25   LegendNANA
15:00 17.9 16.2 90 25 10   102.53     LegendNANA
16:00 16.6 15.7 94 30 3   102.55     LegendNANA
17:00 18.5 16.9 90 18 2   102.53     LegendNANA
18:00 17.4 16.8 96 16 6   102.53     LegendNANA
19:00 15.9 15.9 100 15 12   102.53     LegendNANA
20:00 16.1 LegendMM LegendMM 15 10   102.58     LegendNANA
21:00 15.9 LegendMM LegendMM 15 9   102.59     LegendNANA
22:00 15.6 15.6 100 15 13   102.57     LegendNANA
23:00 15.9 15.9 100 18 4   102.62     LegendNANA

Notes on Data Quality.

Legend

  • E = Estimated
  • M = Missing
  • NA = Not Available*
  • [empty] = Indicates an unobserved value
Date modified: